SCP
0 -0 -0 0 0 0 0 0 0 0 0 0 0 0 0 1 1 1 1 0 0 0 0 -0 -0 0 -0 0 0 0 0 0 0 0 0 0 0 0 0 0 0 0 0
0 -0 -0 0 0 0 0 0 0 0 1 0 0 0 1 1 1 1 0 -0 0 -0 0 -0 0 -0 0 0 0 0 0 0 0 -0 0 0 0 0 0 0 0 0 0
0 -0 -0 0 0 0 0 0 0 0 0 0 0 0 1 1 1 0 0 0 0 0 0 0 0 0 0 0 0 0 -0 0 0 -0 -0 -0 0 0 0 -0 0 0 0
-0 -0 0 -0 0 0 0 0 0 0 0 1 0 1 2 1 1 1 1 0 0 0 0 0 -0 0 0 0 -0 -0 -0 -0 -0 -0 -0 -0 -0 -0 -0 0 0 0 0
-0 -0 0 0 0 0 0 0 1 0 1 0 0 1 2 1 1 0 0 0 0 0 0 0 0 0 -0 0 -0 0 0 -0 -0 -0 -0 -0 -0 -0 0 0 -0 -0 0
-0 0 0 0 0 0 0 0 0 1 0 0 1 1 1 1 1 0 0 0 0 0 0 0 0 0 0 -0 0 0 0 -0 -0 -0 -0 -0 -0 0 -0 -0 -0 0 0
0 0 0 0 0 0 0 0 0 0 1 1 1 1 0 1 0 0 0 0 -0 0 0 0 0 0 0 0 0 -0 -0 -0 -0 -0 -0 -0 -0 -0 -0 0 0 0 0
0 0 0 0 0 0 0 0 0 0 1 1 1 1 0 0 0 0 0 0 0 0 0 0 0 0 0 0 -0 0 -0 -0 -0 -0 -0 -0 -0 -0 0 0 0 0 0
-0 0 0 0 0 0 0 0 0 0 0 1 0 0 0 0 0 0 0 0 0 0 0 0 0 0 0 0 0 0 -0 -0 -0 -0 -0 -0 -0 0 0 0 0 0 0
-0 -0 0 0 0 0 0 0 0 0 0 1 1 2 0 0 0 0 0 0 0 0 0 0 0 0 0 0 0 0 -0 -0 -0 -0 -0 -0 -0 0 -0 -0 0 0 0
-0 0 0 0 0 0 0 0 0 0 1 1 1 0 0 0 0 0 0 0 0 0 0 0 0 0 0 -0 -0 0 -0 -0 -0 0 0 0 -0 -0 -0 -0 -0 0 0
0 0 0 0 0 0 0 0 0 0 0 1 1 0 0 0 0 0 0 0 0 0 0 0 0 -0 -0 -0 0 0 0 -0 0 0 0 -0 -0 -0 -0 -0 0 0 0
0 0 0 0 0 0 0 0 0 0 1 1 1 1 0 0 0 0 0 0 0 0 0 0 0 0 0 0 0 -0 -0 -0 0 -0 -0 -0 -0 -0 0 0 0 0 0
0 0 0 0 0 0 0 0 1 1 0 1 0 0 0 0 0 0 0 0 0 0 0 0 0 0 0 0 0 -0 -0 0 -0 -0 0 0 0 0 0 0 0 0 0
0 0 0 0 0 0 0 0 0 0 0 0 0 0 0 0 0 0 0 0 0 0 0 0 0 0 0 0 -0 0 0 -0 -0 0 0 -0 0 0 0 0 0 0 0
0 0 0 0 0 0 0 0 0 0 0 0 0 -0 0 0 0 0 0 0 0 0 0 0 0 0 0 0 0 0 -0 -0 0 -0 0 0 0 0 0 0 0 0 0
0 0 0 0 0 0 0 0 0 0 -0 -0 -0 0 0 0 0 0 0 0 0 0 0 0 0 0 0 0 0 0 -0 -0 -0 0 0 0 0 0 0 0 0 0 0
0 0 0 0 0 0 0 0 0 0 0 0 0 0 0 0 0 0 0 0 0 0 0 0 0 0 0 0 0 0 0 0 0 0 0 0 0 0 0 0 0 0 0
0 0 0 0 0 0 0 0 0 -0 -0 0 0 0 -0 -0 0 0 0 0 0 0 0 0 0 0 0 0 0 0 0 0 0 0 0 0 0 0 0 0 0 0 0
0 0 0 0 0 0 0 0 0 0 0 0 0 0 0 0 0 0 0 0 0 0 0 0 0 0 0 0 0 0 0 0 0 0 0 0 0 0 0 0 0 0 0
0 -0 -0 0 0 0 0 0 0 0 0 0 0 0 0 0 0 0 0 0 0 0 0 -0 0 0 0 0 0 0 0 0 0 0 0 0 0 0 0 0 0 0 0
0 0 0 0 0 0 0 0 0 0 0 0 0 0 0 0 0 0 0 0 0 -0 -0 -0 0 0 0 0 0 0 0 0 0 0 0 0 0 0 0 0 0 0 0
-0 -0 -0 -0 -0 0 0 0 0 0 0 0 0 0 0 0 -0 0 0 0 0 0 0 0 -0 0 0 0 0 0 0 0 0 0 0 0 0 0 0 0 0 0 0
-0 -0 -0 -0 -0 -0 -0 0 0 0 0 0 0 0 0 0 0 0 0 -0 0 0 0 -0 0 0 0 0 0 0 0 0 0 0 0 0 0 0 0 0 0 0 0
-0 -0 -0 -0 -0 -0 -0 -0 0 0 0 -0 0 0 0 0 0 -0 -0 0 0 0 0 0 0 0 0 0 0 0 0 0 0 0 0 0 0 0 0 0 0 0 0
0 0 0 0 0 0 0 0 0 -0 0 0 0 -0 0 -0 -0 -0 -0 0 0 0 0 0 0 0 0 0 0 0 0 0 0 0 0 0 0 0 0 0 0 0 0
Wind_Speed_500mb
7 8 14 32 39 34 32 30 31 34 36 38 37 35 37 41 40 31 33 38 56 55 63 55 53 53 55 54 50 52 52 55 47 41 36 33 29 25 20 15 11 9 9
5 1 5 20 29 32 31 33 31 34 35 34 37 34 39 38 44 43 34 45 48 42 60 53 53 54 54 49 50 57 56 48 46 39 34 30 24 20 16 8 6 8 10
4 5 10 17 26 36 36 33 35 35 37 33 34 34 36 39 45 46 39 55 54 54 50 63 53 44 46 51 57 60 54 46 42 39 33 27 21 16 8 5 7 8 10
10 6 8 17 23 30 33 31 34 35 34 34 34 34 39 37 42 44 45 54 46 51 59 57 49 45 50 59 61 56 50 45 42 36 30 24 16 8 4 7 8 10 13
17 12 9 14 23 27 34 39 41 40 37 35 31 38 42 41 46 52 61 52 45 35 54 55 53 53 64 63 57 50 48 47 40 32 27 19 9 2 6 3 10 12 12
14 13 14 17 21 26 30 37 41 37 33 33 35 39 44 42 42 44 50 47 38 44 66 57 60 56 59 61 55 50 47 43 36 30 23 13 4 2 5 11 11 13 12
17 16 18 21 22 24 29 33 35 39 39 38 49 42 40 41 41 42 45 47 51 52 60 55 52 55 55 58 51 48 45 37 32 26 17 8 5 7 10 12 14 13 9
12 16 18 20 27 30 31 35 39 42 40 52 57 59 42 45 32 45 47 39 38 61 48 49 51 57 54 50 48 44 39 35 29 22 13 9 9 10 14 15 13 10 5
12 13 16 18 24 30 34 37 41 46 59 51 52 37 35 22 52 48 50 40 46 54 45 44 52 56 50 46 44 40 36 31 24 15 12 11 12 16 18 14 9 4 2
21 13 15 24 23 29 38 42 47 54 56 57 36 38 34 59 26 30 51 56 71 61 47 49 55 60 57 50 43 38 35 28 22 13 13 15 19 20 15 11 5 4 6
21 18 19 19 27 33 41 45 49 45 54 60 50 47 57 41 42 51 52 53 52 51 47 42 38 65 52 43 34 35 31 22 15 18 19 21 21 16 11 5 3 5 10
25 21 19 31 32 31 35 41 44 53 57 44 42 49 43 34 38 59 68 58 59 50 42 51 47 44 44 44 39 34 24 23 23 20 20 20 16 11 7 3 6 9 13
26 28 21 35 31 36 34 41 46 47 42 47 43 44 41 30 45 66 72 76 63 46 46 44 40 36 36 34 38 32 29 24 21 23 18 14 11 7 5 6 9 12 15
32 24 22 31 36 35 38 37 38 36 36 36 42 52 37 27 39 54 86 78 60 48 43 44 36 30 25 23 33 31 27 24 24 19 14 9 8 9 10 10 13 15 20
22 23 28 33 35 33 28 32 31 34 34 34 40 39 40 18 44 63 67 62 62 37 29 36 25 29 26 30 31 26 27 28 21 14 8 9 11 11 13 15 18 20 22
30 29 26 27 36 27 31 32 38 37 30 29 29 35 37 40 65 62 34 36 19 33 21 33 19 31 26 24 33 25 24 21 18 14 13 12 14 16 20 20 21 24 27
30 37 34 23 21 25 38 34 34 31 33 33 36 28 32 46 57 46 31 28 11 17 20 25 23 34 34 27 35 26 23 21 21 18 14 18 22 22 24 26 27 29 28
38 36 29 26 33 27 28 29 27 27 33 31 31 25 39 43 50 36 27 17 11 13 23 33 31 33 30 28 28 26 20 18 20 18 23 25 27 29 31 33 34 33 31
30 32 40 41 42 36 28 27 30 34 37 35 33 35 41 35 34 26 23 22 17 18 23 30 33 29 26 26 28 27 25 23 17 29 30 34 34 37 40 38 39 37 37
30 32 34 39 38 38 39 37 36 33 30 29 31 30 31 29 33 33 26 23 22 23 23 21 25 27 25 29 23 21 27 29 26 35 38 41 42 44 45 45 46 46 45
28 30 34 36 37 33 33 40 42 42 40 38 37 34 32 32 33 30 20 20 24 20 20 21 21 19 19 20 26 20 22 23 29 35 31 42 45 49 54 53 54 53 50
26 27 27 27 28 30 31 31 32 32 34 36 37 36 36 34 31 26 20 21 23 23 21 17 12 12 16 20 21 22 22 28 31 37 39 41 43 44 43 51 57 55 51
28 26 26 24 25 26 29 30 29 30 31 33 32 32 30 29 26 22 17 14 15 16 16 16 17 17 21 25 24 31 34 35 38 31 52 45 41 53 46 48 62 63 59
28 27 25 21 18 20 23 24 25 27 28 27 27 25 23 21 19 16 15 17 16 15 14 15 18 19 22 26 29 34 37 40 42 44 50 54 45 52 53 50 62 65 64
33 29 22 20 17 20 23 25 27 27 28 27 27 26 25 23 22 19 16 13 10 9 10 11 13 17 22 28 33 36 35 34 42 43 44 60 51 48 50 57 53 69 66
31 25 24 24 24 24 27 29 31 25 32 31 30 28 26 26 22 18 15 10 7 7 11 18 23 29 33 38 39 44 43 40 45 50 41 54 52 45 51 51 51 51 65
Wind_Direction_500mb
291 273 227 201 193 202 212 204 202 207 202 186 186 194 200 189 186 182 181 201 187 180 165 165 166 161 164 164 159 157 157 152 151 151 147 141 137 128 122 106 73 47 31
297 100 185 177 177 189 194 198 198 196 187 180 181 189 196 185 183 172 158 167 160 174 170 168 163 163 165 163 162 159 157 159 154 154 150 143 137 125 114 96 51 31 26
265 173 157 170 178 186 183 185 185 181 178 178 175 186 184 185 183 176 162 166 172 177 170 159 157 163 166 164 164 162 160 159 157 157 152 144 136 129 121 77 41 37 47
266 247 184 176 179 181 177 177 175 173 177 175 178 186 176 178 177 181 171 167 176 171 151 149 158 169 172 170 166 161 159 160 164 160 152 147 142 140 87 38 45 69 79
258 251 213 188 176 176 174 169 169 173 173 170 173 175 175 173 172 180 165 171 167 162 161 161 165 174 174 166 163 160 162 165 165 160 157 153 154 131 36 70 105 97 100
246 235 198 181 175 171 168 165 164 162 167 166 168 166 178 176 164 172 172 164 179 177 168 167 169 171 170 163 165 166 167 168 165 165 162 165 174 14 152 121 125 125 113
228 212 198 196 179 176 167 168 162 162 162 161 158 166 165 169 173 163 164 168 156 168 166 169 177 171 173 165 166 168 170 167 169 169 173 177 183 152 137 154 145 120 104
192 192 188 187 189 180 169 169 165 159 161 162 152 143 128 150 162 158 159 164 168 164 174 185 184 176 165 162 165 170 171 172 173 178 187 180 158 152 172 162 135 120 105
160 186 192 181 178 185 177 170 168 165 157 167 170 155 137 137 155 166 170 177 162 176 178 175 178 168 156 163 167 177 176 174 181 198 191 169 169 170 174 150 132 152 306
114 117 167 188 190 183 179 172 165 163 161 164 147 150 162 141 148 122 154 152 171 171 172 180 162 164 166 169 175 182 176 182 199 198 181 181 172 176 158 151 187 262 316
107 107 140 147 153 164 164 165 163 160 163 164 161 156 148 152 148 141 140 143 150 159 168 173 158 161 163 168 178 187 189 195 189 185 185 182 170 162 172 190 262 306 313
84 94 103 137 145 149 160 160 158 157 162 157 152 150 136 158 168 155 148 153 153 167 175 173 169 154 165 176 188 189 186 192 184 185 180 175 163 181 214 255 294 308 315
74 71 100 130 143 144 157 162 160 161 158 162 152 152 144 154 167 175 154 154 151 137 150 157 161 167 175 177 185 188 189 187 177 175 171 174 194 226 252 266 294 312 319
63 67 97 127 136 140 147 157 155 162 163 167 159 169 158 156 178 163 164 150 141 147 158 171 178 187 170 179 188 186 182 169 172 169 177 205 234 249 254 289 303 306 307
55 72 101 107 121 120 136 143 155 163 168 180 176 170 183 182 166 156 153 155 151 154 159 172 163 173 172 179 180 167 177 171 174 182 200 231 253 269 279 285 289 298 305
73 75 107 120 128 119 121 144 152 157 167 168 182 184 183 181 165 154 158 161 142 157 137 169 175 177 171 167 175 168 180 182 192 210 235 262 277 280 272 276 286 298 292
111 92 97 112 128 127 126 126 134 149 173 176 173 183 182 180 169 170 166 161 162 168 158 157 161 175 169 164 175 176 194 199 218 233 260 271 269 267 273 281 283 286 286
104 108 121 113 104 113 137 141 135 130 143 146 145 153 158 157 170 175 171 184 181 174 178 157 167 169 169 178 182 190 197 210 222 251 259 263 267 272 276 275 279 284 286
103 106 106 107 101 99 111 121 131 136 141 142 139 142 148 162 162 167 176 178 179 159 163 167 167 173 180 185 197 206 216 221 234 261 264 267 274 273 268 274 280 283 284
107 113 115 114 110 105 105 112 122 129 133 137 142 148 156 160 168 172 170 176 165 156 163 167 173 183 188 205 205 220 239 251 248 268 270 268 270 269 273 276 277 278 280
119 117 119 119 116 110 116 120 118 117 120 129 136 146 149 155 161 160 157 152 162 155 154 171 179 181 192 222 222 234 240 247 251 254 247 268 275 274 273 273 276 277 279
133 133 129 126 126 130 126 127 130 132 134 135 134 137 142 148 153 154 158 172 176 175 176 177 185 202 221 239 233 232 242 245 255 265 272 257 262 266 265 272 282 281 277
151 143 138 136 144 146 146 147 145 142 142 145 149 149 150 157 162 168 176 180 194 202 211 212 211 227 234 240 237 252 249 249 255 264 273 264 256 263 262 259 264 281 276
164 162 158 155 158 163 164 163 163 161 162 161 163 164 170 173 168 167 181 197 203 209 217 229 238 242 247 251 259 263 261 264 265 260 259 265 270 266 263 262 260 277 273
179 179 179 186 186 181 174 170 168 169 172 172 171 171 167 161 162 168 163 160 171 192 211 235 254 262 269 270 270 267 262 264 267 271 267 271 275 272 269 263 259 265 273
188 185 191 193 189 176 167 162 158 160 160 161 159 159 158 155 154 154 161 170 201 257 278 279 278 278 277 278 276 275 272 264 270 276 277 263 271 280 278 274 265 259 268
Wind_Speed_850mb
7 8 14 32 39 34 32 30 31 34 36 38 37 35 37 41 40 31 33 38 56 55 63 55 53 53 55 54 50 52 52 55 47 41 36 33 29 25 20 15 11 9 9
5 1 5 20 29 32 31 33 31 34 35 34 37 34 39 38 44 43 34 45 48 42 60 53 53 54 54 49 50 57 56 48 46 39 34 30 24 20 16 8 6 8 10
4 5 10 17 26 36 36 33 35 35 37 33 34 34 36 39 45 46 39 55 54 54 50 63 53 44 46 51 57 60 54 46 42 39 33 27 21 16 8 5 7 8 10
10 6 8 17 23 30 33 31 34 35 34 34 34 34 39 37 42 44 45 54 46 51 59 57 49 45 50 59 61 56 50 45 42 36 30 24 16 8 4 7 8 10 13
17 12 9 14 23 27 34 39 41 40 37 35 31 38 42 41 46 52 61 52 45 35 54 55 53 53 64 63 57 50 48 47 40 32 27 19 9 2 6 3 10 12 12
14 13 14 17 21 26 30 37 41 37 33 33 35 39 44 42 42 44 50 47 38 44 66 57 60 56 59 61 55 50 47 43 36 30 23 13 4 2 5 11 11 13 12
17 16 18 21 22 24 29 33 35 39 39 38 49 42 40 41 41 42 45 47 51 52 60 55 52 55 55 58 51 48 45 37 32 26 17 8 5 7 10 12 14 13 9
12 16 18 20 27 30 31 35 39 42 40 52 57 59 42 45 32 45 47 39 38 61 48 49 51 57 54 50 48 44 39 35 29 22 13 9 9 10 14 15 13 10 5
12 13 16 18 24 30 34 37 41 46 59 51 52 37 35 22 52 48 50 40 46 54 45 44 52 56 50 46 44 40 36 31 24 15 12 11 12 16 18 14 9 4 2
21 13 15 24 23 29 38 42 47 54 56 57 36 38 34 59 26 30 51 56 71 61 47 49 55 60 57 50 43 38 35 28 22 13 13 15 19 20 15 11 5 4 6
21 18 19 19 27 33 41 45 49 45 54 60 50 47 57 41 42 51 52 53 52 51 47 42 38 65 52 43 34 35 31 22 15 18 19 21 21 16 11 5 3 5 10
25 21 19 31 32 31 35 41 44 53 57 44 42 49 43 34 38 59 68 58 59 50 42 51 47 44 44 44 39 34 24 23 23 20 20 20 16 11 7 3 6 9 13
26 28 21 35 31 36 34 41 46 47 42 47 43 44 41 30 45 66 72 76 63 46 46 44 40 36 36 34 38 32 29 24 21 23 18 14 11 7 5 6 9 12 15
32 24 22 31 36 35 38 37 38 36 36 36 42 52 37 27 39 54 86 78 60 48 43 44 36 30 25 23 33 31 27 24 24 19 14 9 8 9 10 10 13 15 20
22 23 28 33 35 33 28 32 31 34 34 34 40 39 40 18 44 63 67 62 62 37 29 36 25 29 26 30 31 26 27 28 21 14 8 9 11 11 13 15 18 20 22
30 29 26 27 36 27 31 32 38 37 30 29 29 35 37 40 65 62 34 36 19 33 21 33 19 31 26 24 33 25 24 21 18 14 13 12 14 16 20 20 21 24 27
30 37 34 23 21 25 38 34 34 31 33 33 36 28 32 46 57 46 31 28 11 17 20 25 23 34 34 27 35 26 23 21 21 18 14 18 22 22 24 26 27 29 28
38 36 29 26 33 27 28 29 27 27 33 31 31 25 39 43 50 36 27 17 11 13 23 33 31 33 30 28 28 26 20 18 20 18 23 25 27 29 31 33 34 33 31
30 32 40 41 42 36 28 27 30 34 37 35 33 35 41 35 34 26 23 22 17 18 23 30 33 29 26 26 28 27 25 23 17 29 30 34 34 37 40 38 39 37 37
30 32 34 39 38 38 39 37 36 33 30 29 31 30 31 29 33 33 26 23 22 23 23 21 25 27 25 29 23 21 27 29 26 35 38 41 42 44 45 45 46 46 45
28 30 34 36 37 33 33 40 42 42 40 38 37 34 32 32 33 30 20 20 24 20 20 21 21 19 19 20 26 20 22 23 29 35 31 42 45 49 54 53 54 53 50
26 27 27 27 28 30 31 31 32 32 34 36 37 36 36 34 31 26 20 21 23 23 21 17 12 12 16 20 21 22 22 28 31 37 39 41 43 44 43 51 57 55 51
28 26 26 24 25 26 29 30 29 30 31 33 32 32 30 29 26 22 17 14 15 16 16 16 17 17 21 25 24 31 34 35 38 31 52 45 41 53 46 48 62 63 59
28 27 25 21 18 20 23 24 25 27 28 27 27 25 23 21 19 16 15 17 16 15 14 15 18 19 22 26 29 34 37 40 42 44 50 54 45 52 53 50 62 65 64
33 29 22 20 17 20 23 25 27 27 28 27 27 26 25 23 22 19 16 13 10 9 10 11 13 17 22 28 33 36 35 34 42 43 44 60 51 48 50 57 53 69 66
31 25 24 24 24 24 27 29 31 25 32 31 30 28 26 26 22 18 15 10 7 7 11 18 23 29 33 38 39 44 43 40 45 50 41 54 52 45 51 51 51 51 65
Wind_Direction_850mb
291 273 227 201 193 202 212 204 202 207 202 186 186 194 200 189 186 182 181 201 187 180 165 165 166 161 164 164 159 157 157 152 151 151 147 141 137 128 122 106 73 47 31
297 100 185 177 177 189 194 198 198 196 187 180 181 189 196 185 183 172 158 167 160 174 170 168 163 163 165 163 162 159 157 159 154 154 150 143 137 125 114 96 51 31 26
265 173 157 170 178 186 183 185 185 181 178 178 175 186 184 185 183 176 162 166 172 177 170 159 157 163 166 164 164 162 160 159 157 157 152 144 136 129 121 77 41 37 47
266 247 184 176 179 181 177 177 175 173 177 175 178 186 176 178 177 181 171 167 176 171 151 149 158 169 172 170 166 161 159 160 164 160 152 147 142 140 87 38 45 69 79
258 251 213 188 176 176 174 169 169 173 173 170 173 175 175 173 172 180 165 171 167 162 161 161 165 174 174 166 163 160 162 165 165 160 157 153 154 131 36 70 105 97 100
246 235 198 181 175 171 168 165 164 162 167 166 168 166 178 176 164 172 172 164 179 177 168 167 169 171 170 163 165 166 167 168 165 165 162 165 174 14 152 121 125 125 113
228 212 198 196 179 176 167 168 162 162 162 161 158 166 165 169 173 163 164 168 156 168 166 169 177 171 173 165 166 168 170 167 169 169 173 177 183 152 137 154 145 120 104
192 192 188 187 189 180 169 169 165 159 161 162 152 143 128 150 162 158 159 164 168 164 174 185 184 176 165 162 165 170 171 172 173 178 187 180 158 152 172 162 135 120 105
160 186 192 181 178 185 177 170 168 165 157 167 170 155 137 137 155 166 170 177 162 176 178 175 178 168 156 163 167 177 176 174 181 198 191 169 169 170 174 150 132 152 306
114 117 167 188 190 183 179 172 165 163 161 164 147 150 162 141 148 122 154 152 171 171 172 180 162 164 166 169 175 182 176 182 199 198 181 181 172 176 158 151 187 262 316
107 107 140 147 153 164 164 165 163 160 163 164 161 156 148 152 148 141 140 143 150 159 168 173 158 161 163 168 178 187 189 195 189 185 185 182 170 162 172 190 262 306 313
84 94 103 137 145 149 160 160 158 157 162 157 152 150 136 158 168 155 148 153 153 167 175 173 169 154 165 176 188 189 186 192 184 185 180 175 163 181 214 255 294 308 315
74 71 100 130 143 144 157 162 160 161 158 162 152 152 144 154 167 175 154 154 151 137 150 157 161 167 175 177 185 188 189 187 177 175 171 174 194 226 252 266 294 312 319
63 67 97 127 136 140 147 157 155 162 163 167 159 169 158 156 178 163 164 150 141 147 158 171 178 187 170 179 188 186 182 169 172 169 177 205 234 249 254 289 303 306 307
55 72 101 107 121 120 136 143 155 163 168 180 176 170 183 182 166 156 153 155 151 154 159 172 163 173 172 179 180 167 177 171 174 182 200 231 253 269 279 285 289 298 305
73 75 107 120 128 119 121 144 152 157 167 168 182 184 183 181 165 154 158 161 142 157 137 169 175 177 171 167 175 168 180 182 192 210 235 262 277 280 272 276 286 298 292
111 92 97 112 128 127 126 126 134 149 173 176 173 183 182 180 169 170 166 161 162 168 158 157 161 175 169 164 175 176 194 199 218 233 260 271 269 267 273 281 283 286 286
104 108 121 113 104 113 137 141 135 130 143 146 145 153 158 157 170 175 171 184 181 174 178 157 167 169 169 178 182 190 197 210 222 251 259 263 267 272 276 275 279 284 286
103 106 106 107 101 99 111 121 131 136 141 142 139 142 148 162 162 167 176 178 179 159 163 167 167 173 180 185 197 206 216 221 234 261 264 267 274 273 268 274 280 283 284
107 113 115 114 110 105 105 112 122 129 133 137 142 148 156 160 168 172 170 176 165 156 163 167 173 183 188 205 205 220 239 251 248 268 270 268 270 269 273 276 277 278 280
119 117 119 119 116 110 116 120 118 117 120 129 136 146 149 155 161 160 157 152 162 155 154 171 179 181 192 222 222 234 240 247 251 254 247 268 275 274 273 273 276 277 279
133 133 129 126 126 130 126 127 130 132 134 135 134 137 142 148 153 154 158 172 176 175 176 177 185 202 221 239 233 232 242 245 255 265 272 257 262 266 265 272 282 281 277
151 143 138 136 144 146 146 147 145 142 142 145 149 149 150 157 162 168 176 180 194 202 211 212 211 227 234 240 237 252 249 249 255 264 273 264 256 263 262 259 264 281 276
164 162 158 155 158 163 164 163 163 161 162 161 163 164 170 173 168 167 181 197 203 209 217 229 238 242 247 251 259 263 261 264 265 260 259 265 270 266 263 262 260 277 273
179 179 179 186 186 181 174 170 168 169 172 172 171 171 167 161 162 168 163 160 171 192 211 235 254 262 269 270 270 267 262 264 267 271 267 271 275 272 269 263 259 265 273
188 185 191 193 189 176 167 162 158 160 160 161 159 159 158 155 154 154 161 170 201 257 278 279 278 278 277 278 276 275 272 264 270 276 277 263 271 280 278 274 265 259 268